COSMOS 2404 (701) 1 28112U 03056A 08024.44019992 -.00000047 00000-0 10000-3 0 2078 2 28112 64.3007 300.6856 0043152 99.6547 16.6193 2.13104682 32085 COSMOS 2403 (795) 1 28114U 03056C 08024.35991251 -.00000046 00000-0 10000-3 0 1615 2 28114 64.3159 300.7086 0037454 80.6337 70.3926 2.13104250 32088 COSMOS 2411 (796) 1 28508U 04053A 08024.21973869 -.00000044 00000-0 10000-3 0 8671 2 28508 64.1928 299.5924 0009475 158.6790 16.4813 2.13103584 23944 COSMOS 2413 (712) 1 28509U 04053B 08024.08416543 -.00000044 00000-0 10000-3 0 8746 2 28509 64.1875 299.5700 0004398 158.1149 0.3344 2.13102971 23940 COSMOS 2412 (797) 1 28510U 04053C 08025.08344957 -.00000048 00000-0 10000-3 0 8809 2 28510 64.1988 299.5806 0002182 193.5458 326.4732 2.13102996 23961 COSMOS 2419 (714) 1 28915U 05050A 08024.34439810 .00000035 00000-0 10000-3 0 6024 2 28915 64.8638 180.6190 0007887 352.2607 34.6530 2.13102053 16209 COSMOS 2418 (713) 1 28916U 05050B 08024.11891256 .00000034 00000-0 10000-3 0 5877 2 28916 64.8820 180.6471 0019144 343.3423 182.3555 2.13097090 16191 COSMOS 2425 (716) 1 29670U 06062A 08024.29280838 -.00000017 00000-0 10000-3 0 3191 2 29670 65.0562 60.3027 0024396 346.8929 347.5633 2.13103461 8395 COSMOS 2426 (717) 1 29671U 06062B 08024.12042413 -.00000016 00000-0 10000-3 0 3244 2 29671 65.0723 60.3269 0019493 177.2358 250.4135 2.13103755 8404 COSMOS 2424 (715) 1 29672U 06062C 08023.88315278 -.00000014 00000-0 10000-3 0 3393 2 29672 65.0577 60.3196 0016964 177.1506 248.6178 2.13103908 8399 COSMOS 2433 (720) 1 32275U 07052A 08024.10630764 .00000033 00000-0 00000+0 0 653 2 32275 64.8762 180.3590 0000278 296.1995 88.9963 2.13102487 1910 COSMOS 2432 (719) 1 32276U 07052B 08024.14876644 .00000034 00000-0 00000+0 0 591 2 32276 64.8892 180.3717 0014739 348.4782 24.3342 2.13102227 1915 COSMOS 2431 (718) 1 32277U 07052C 08024.60309891 .00000037 00000-0 00000+0 0 636 2 32277 64.8922 180.3490 0017773 183.0516 313.3962 2.13102429 2001 COSMOS 2434 (721) 1 32393U 07065A 08025.24091512 -.00000024 00000-0 00000+0 0 365 2 32393 64.6722 61.0410 0019614 120.0128 311.4871 2.12542838 646 COSMOS 2435 (722) 1 32394U 07065B 08025.47923451 -.00000026 00000-0 00000+0 0 370 2 32394 64.6738 61.0335 0000498 337.3806 96.5154 2.13103184 582 COSMOS 2436 (723) 1 32395U 07065C 08024.58178569 -.00000019 00000-0 00000+0 0 455 2 32395 64.6852 61.0564 0019133 348.8131 26.6057 2.13103402 565